Regional Weather Roundup
Issued by NWS

Home | Current Version | Previous Version | Text Only | Print | Product List | Glossary On
Versions: 1 2 3 4 5 6 7 8 9 10 11 12 13 14 15 16 17 18 19 20 21 22 23 24 25 26 27 28 29 30 31 32 33 34 35 36 37 38 39 40 41 42 43 44 45 46 47 48 49 50
000
ASUS44 KFWD 200415
RWRTX
NORTH TEXAS HOURLY WEATHER ROUNDUP
NATIONAL WEATHER SERVICE FORT WORTH TX
1000 PM CST SUN FEB 19 2017

NOTE: "FAIR" INDICATES FEW OR NO CLOUDS BELOW 12,000 FEET WITH NO
SIGNIFICANT WEATHER AND/OR OBSTRUCTIONS TO VISIBILITY.

TXZ118-119-200500-
DALLAS/FORT WORTH METROPLEX

CITY           SKY/WX    TMP DP  RH WIND       PRES   REMARKS
DFW AIRPORT    MOCLDY    71  67  87 SE18      29.83R
DALLAS LOVE    MOCLDY    70  65  84 SE17      29.85R
FTW MEACHAM    CLOUDY    70  64  81 SE9       29.84R
DAL-EXECUTIVE  MOCLDY    69  66  90 SE14      29.85R FOG
FTW-ALLIANCE   CLOUDY    70  65  84 SE14G20   29.84R
FTW-NAS-JRB    CLOUDY    71  65  81 SE12      29.85R
FTW-SPINKS     CLOUDY    69  65  87 SE13G18   29.85R
ARLINGTON      CLOUDY    70  65  84 SE12      29.85R
GRAND PRAIRIE  CLOUDY    69  64  84 SE10G18   29.86R
ADDISON        PTCLDY    69  65  88 SE12G20   29.87R
MESQUITE       PTCLDY    69  65  87 SE12      29.86R
LANCASTER      MOCLDY    68  65  89 SE8       29.87R FOG
$$

TXZ091>094-102>105-117-120-121-131>134-200500-
NORTH CENTRAL TEXAS

CITY           SKY/WX    TMP DP  RH WIND       PRES   REMARKS
SHRMAN/DENISON PTCLDY    68  64  87 SE15      29.86R
GAINESVILLE    CLOUDY    67  64  87 SE13      29.87R
BOWIE          CLOUDY    69  67  92 S10G17    29.85R
BRIDGEPORT     CLOUDY    67  59  74 W10G25    29.89R
DECATUR        CLOUDY    69  64  86 SE17      29.85R
DENTON         CLOUDY    70  65  84 S13       29.85R
MCKINNEY       MOCLDY    67  66  97 SE7       29.86R
BONHAM         CLEAR     68  63  83 SE16G26   29.86S
GREENVILLE     PTCLDY    70  63  78 SE14G21   29.87R
ROCKWALL       PTCLDY    69  66  90 SE10G18   29.86R
TERRELL        PTCLDY    70  64  81 SE13      29.87R
WAXAHACHIE     CLOUDY    68  67  98 SE8       29.87R FOG
CLEBURNE       MOCLDY    70  68  94 E13       29.84F
GRANBURY       CLOUDY    72  65  78 SE9       29.86R
$$

TXZ083>090-098>101-113>116-127>130-139>142-154-155-200500-
WESTERN NORTH TEXAS

CITY           SKY/WX    TMP DP  RH WIND       PRES   REMARKS
WICHITA FALLS  LGT RAIN  58  53  84 NW15G24   29.83R
WF-KICKAPOO    RAIN      58  54  87 NW13G21   29.85R
VERNON         CLOUDY    59  51  75 W5        29.83F
ABILENE        RAIN      55  52  89 W8        29.89R
ABILENE-DYESS  LGT RAIN  56  52  85 CALM      29.87F
GRAHAM         LGT RAIN  57  57 100 W6        29.89R
BRECKENRIDGE   HVY RAIN  59  54  83 CALM      29.89F
CISCO          TSTM      55  52  88 NW8       29.91R
RANGER         LGT RAIN  57  54  88 NW9       29.89R
MINERAL WELLS  LGT RAIN  60  59  96 NW10      29.86S
STEPHENVILLE   CLOUDY    63  54  71 NW18G30   29.90R
COMANCHE       LGT RAIN  57  57 100 W12       29.94R
BROWNWOOD      LGT RAIN  57  55  94 NW8       29.95R
COLEMAN        CLOUDY    56  52  86 CALM      29.96R
$$

TXZ143>147-156>162-174-175-200500-
CENTRAL TEXAS

CITY           SKY/WX    TMP DP  RH WIND       PRES   REMARKS
WACO           CLOUDY    71  65  81 SE17      29.85R
WACO-TSTC      CLEAR     72  64  78 SE8       29.85R
WACO-MCGREGOR  CLOUDY    70  66  87 SE15      29.85R
HILLSBORO      CLOUDY    69  66  88 E8        29.85S
CORSICANA      CLOUDY    68  66  93 SE9       29.87R FOG
MEXIA          PTCLDY    70  62  75 SE10G20   29.86S
HEARNE         CLOUDY    72  66  83 E6        29.87S
CAMERON        CLOUDY    71  66  84 SE8G18    29.87R
TEMPLE         CLOUDY    71  67  87 SE15      29.86R
KILLEEN        CLOUDY    70  66  89 SE17      29.85R
KILLEEN-SKYLRK CLOUDY    71  66  84 S10G17    29.87R
FORT HOOD      CLOUDY    69  65  88 SE14G20   29.84R
GATESVILLE     CLOUDY    72  66  83 S13       29.87R
HAMILTON       CLOUDY    70  66  88 S14       29.87R
LAMPASAS       CLOUDY    71  68  91 S5        29.86R
$$

TXZ095>097-106>112-122>126-135>138-148>153-164>167-200500-
EAST TEXAS

CITY           SKY/WX    TMP DP  RH WIND       PRES   REMARKS
PARIS          PTCLDY    66  57  72 E13       29.89F
SULPHUR SPRNGS MOCLDY    70  64  81 SE10      29.89F
MOUNT PLEASANT PTCLDY    69  60  74 SE9       29.93F
GILMER         MOCLDY    69  64  83 SE8       29.92F
MINEOLA        CLOUDY    70  64  83 SE8       29.89F
TYLER          PTCLDY    70  65  84 SE17      29.90S
LONGVIEW       PTCLDY    71  66  84 SE13      29.93R
MARSHALL       PTCLDY    70  64  80 SE5       29.96S
ATHENS         CLEAR     68  64  88 SE12G18   29.88S
PALESTINE      CLOUDY    70  66  87 SE9       29.91R
JACKSONVILLE   MOCLDY    68  66  93 S12       29.94R
HENDERSON      CLOUDY    69  65  88 SE12G18   29.94R
CENTER         MOCLDY    73  70  91 SE5       29.96S
NACOGDOCHES    CLOUDY    70  64  83 SE8       29.93R
LUFKIN         CLOUDY    69  64  84 SE9       29.93R
$$

SUPPLEMENTAL OBSERVATIONS (CENTRAL)

CITY           SKY/WX    TMP DP  RH WIND       PRES   REMARKS
DENISON DAM      N/A     68  63  83 SE10        N/A
CADDO GRASSLND   N/A     68  61  77 SE6         N/A
PAT MAYSE LAKE   N/A     66  63  88 E7          N/A
GREENVILLE       N/A     72  64  78 SE13        N/A
CEDAR HILL       N/A     70  66  88 SE9G17      N/A
ATHENS           N/A     70  64  83 SE14        N/A
LAKE LIMESTONE   N/A     72  64  78 SE10        N/A
MCGREGOR         N/A     70  64  83 SE9G17      N/A
TEMPLE           N/A     72  68  88 SE12        N/A
$$

SUPPLEMENTAL OBSERVATIONS (WEST)

CITY           SKY/WX    TMP DP  RH WIND       PRES   REMARKS
POSSUM KINGDOM   N/A     59  57  94 NW8         N/A
LBJ GRASSLAND    N/A     70  64  83 SE13G21     N/A
GRANBURY         N/A     72  64  78 S10G18      N/A
COMANCHE         N/A     55  52  88 NW17G23     N/A
HAMBY            N/A     57  52  82 W12         N/A
IVIE RESERVOIR   N/A     55  52  88 SE6         N/A
COLORADO BEND    N/A     61  52  72 N14G23      N/A
$$

SUPPLEMENTAL OBSERVATIONS (EAST)

CITY           SKY/WX    TMP DP  RH WIND       PRES   REMARKS
CLARKSVILLE      N/A     70  59  68 SE8         N/A
TEXARKANA        N/A     66  54  63 SE3         N/A
LINDEN           N/A     64  59  82 E1          N/A
CADDO LAKE       N/A    N/A N/A N/A CALM        N/A
GILMER           N/A     70  63  78 SE9         N/A
HENDERSON        N/A     70  64  83 SE10        N/A
LUFKIN           N/A     70  64  83 MISG        N/A
N SABINE NF      N/A     68  64  88 MISG        N/A
S SABINE NF      N/A     70  66  88 SE3         N/A
$$

SUPPLEMENTAL OBSERVATIONS ARE A COLLECTION OF AUTOMATED INSTRUMENTS
THAT ARE MAINTAINED BY A VARIETY OF FEDERAL AND STATE AGENCIES.
CERTAIN ELEMENTS...SUCH AS HUMIDITY VALUES AND SUSTAINED WIND
SPEEDS...MAY BE APPROXIMATED.




USA.gov is the U.S. government's official web portal to all federal, state and local government web resources and services.